Location: Chiroubles
(46.1812°N, 4.6660°E)
Time: 16:05:30
(UTC+00:00)

SR - Visible Passes

Search period start: 26 November 2020 00:00
Search period end: 06 December 2020 00:00
Orbit: 579 x 876 km, 66.7° (Epoch: 25 November)

Date Brightness Start Highest point End Pass type
(mag) Time Alt. Az. Time Alt. Az. Time Alt. Az.
26 Nov ? 04:14:42 25° S 04:14:42 25° S 04:17:11 10° S visible
26 Nov ? 18:39:32 10° SSW 18:41:32 27° SSW 18:41:32 27° SSW visible
27 Nov ? 03:27:18 13° SSE 03:27:18 13° SSE 03:27:49 10° SSE visible
27 Nov ? 17:50:23 10° S 17:53:53 34° SE 17:53:53 34° SE visible
27 Nov ? 19:32:22 10° WSW 19:33:20 16° WSW 19:33:20 16° WSW visible
28 Nov ? 17:02:10 10° SSE 17:04:56 17° ESE 17:06:10 15° E visible
28 Nov ? 18:42:05 10° SW 18:45:36 51° W 18:45:36 51° W visible
29 Nov ? 17:52:21 10° SSW 17:56:39 68° ESE 17:57:47 47° ENE visible
29 Nov ? 19:35:50 10° W 19:37:13 16° WNW 19:37:13 16° WNW visible
30 Nov ? 17:03:16 10° S 17:07:07 32° ESE 17:09:53 17° ENE visible
30 Nov ? 18:45:04 10° WSW 18:49:06 34° NW 18:49:20 34° NW visible
01 Dec ? 17:54:51 10° SW 17:59:11 64° NW 18:01:21 30° NNE visible
01 Dec ? 19:39:49 10° WNW 19:40:47 12° NW 19:40:47 12° NW visible
02 Dec ? 17:05:11 10° SSW 17:09:28 63° ESE 17:13:18 15° NE visible
02 Dec ? 18:48:29 10° W 18:51:59 22° NW 18:52:44 21° NNW visible
03 Dec ? 17:57:47 10° WSW 18:01:52 36° NW 18:04:37 19° N visible
04 Dec ? 17:07:36 10° SW 17:11:58 69° NW 17:16:28 11° NNE visible
04 Dec ? 18:52:23 10° WNW 18:55:01 15° NNW 18:55:52 14° NNW visible
05 Dec ? 18:01:09 10° W 18:04:44 23° NW 18:07:40 14° N visible
